Flag for U.S.A. Weather past 2 weeks in Santa Barbara, California, U.S.A.

Now
60 °F

Passing clouds.


Feels Like: 60 °F
Forecast: 44 / 56 °F
Wind: 23 mph from West

Location: Santa Barbara Municipal Airport

Current Time: Dec 24, 2014 at 10:46:17 PM

Latest Report: Dec 24, 2014 at 9:53 PM


Visibility: 10 mi

Pressure: 29.87 "Hg

Humidity: 78%

Dew point: 53 °F

Location of Santa BarbaraLocation

Historic Weather in Santa Barbara — Graph

°F

Santa Barbara temperature yesterday

Maximum temperature yesterday: 75 °F (at 10:53 AM)
Minimum temperature yesterday: 49 °F (at 5:53 AM)
Average temperature yesterday: 60 °F

Past Weeks' High & Low Weather Summary

 TemperatureHumidityPressure
High80 °F (Dec 22, 2:53 PM)96% (Dec 15, 3:53 AM)30.24 "Hg (Dec 15, 3:53 AM)
Low45 °F (Dec 14, 12:53 AM)20% (Dec 22, 7:53 PM)29.73 "Hg (Dec 11, 11:02 PM)
Average59 °F73%30.03 "Hg
* Reported Dec 9 9:53 PM — Dec 24 9:53 PM, Santa Barbara, Weather by CustomWeather, © 2014

Note: Actual official high and low records may vary slightly from our data, if they occured in-between our weather recording intervals... More about our weather records

Advertising

Santa Barbara weather history for previous 24 hours

 ConditionsComfort  
Time TempWeatherWind HumidityBarometerVisibility
9:53 PM
Dec 24
60 °FPassing clouds.23 mph78%29.87 "Hg10 mi
8:53 PM62 °FPassing clouds.8 mph67%29.88 "Hg10 mi
7:53 PM60 °FPassing clouds.17 mph69%29.88 "Hg10 mi
6:53 PM59 °FPassing clouds.6 mph72%29.88 "Hg10 mi
5:53 PM63 °FPartly cloudy.3 mph68%29.88 "Hg10 mi
4:53 PM63 °FBroken clouds.No wind63%29.88 "Hg10 mi
3:53 PM66 °FPartly sunny.3 mph52%29.90 "Hg10 mi
2:53 PM68 °FPartly sunny.8 mph59%29.93 "Hg10 mi
1:53 PM70 °FPartly sunny.8 mph44%29.95 "Hg10 mi
12:53 PM69 °FPartly sunny.7 mph44%29.98 "Hg10 mi
11:53 AM72 °FPartly sunny.8 mph33%30.00 "Hg10 mi
10:53 AM71 °FSunny.6 mph34%30.03 "Hg10 mi
9:53 AM68 °FSunny.No wind55%30.05 "Hg10 mi
8:53 AM58 °FSunny.No wind75%30.06 "Hg10 mi
7:53 AM50 °FSunny.No wind83%30.05 "Hg10 mi
6:53 AM48 °FClear.3 mph83%30.05 "Hg10 mi
5:53 AM48 °FClear.No wind83%30.05 "Hg10 mi
4:53 AM48 °FClear.No wind83%30.05 "Hg10 mi
3:53 AM49 °FClear.No wind84%30.04 "Hg10 mi
2:53 AM49 °FClear.No wind86%30.06 "Hg10 mi
1:53 AM49 °FClear.No wind90%30.05 "Hg10 mi
12:53 AM50 °FClear.No wind86%30.05 "Hg10 mi
11:53 PM
Dec 23
51 °FClear.No wind86%30.06 "Hg10 mi
10:53 PM52 °FClear.No wind86%30.07 "Hg10 mi
Weather by CustomWeather, © 2014

See weather overviewHow to use our weather pages